This is the latest recevied weather packets stored in our database for station/object N5GC-2. If no packets are shown the sender has not sent any weather packets the latest 10 day(s).
| Time | Temp. | Humidity | Pressure | Rain* | Wind** | Luminosity | Snow |
|---|---|---|---|---|---|---|---|
| 1777664510 | 22.78° C | 33% | - | 0 mm | - | - | - |
| 1777664208 | 22.78° C | 33% | - | 0 mm | - | - | - |
| 1777663906 | 22.78° C | 33% | - | 0 mm | - | - | - |
| 1777663603 | 22.78° C | 33% | - | 0 mm | - | - | - |
| 1777663300 | 22.22° C | 32% | - | 0 mm | - | - | - |
| 1777662998 | 22.22° C | 30% | - | 0 mm | - | - | - |
| 1777662695 | 21.67° C | 38% | - | 0 mm | - | - | - |
| 1777662086 | 21.67° C | 32% | - | 0 mm | - | - | - |
| 1777661783 | 21.11° C | 37% | - | 0 mm | - | - | - |
| 1777660566 | 20.56° C | 35% | - | 0 mm | - | - | - |
| 1777660263 | 20.56° C | 38% | - | 0 mm | - | - | - |
| 1777659960 | 20.56° C | 39% | - | 0 mm | - | - | - |
| 1777659657 | 20.56° C | 38% | - | 0 mm | - | - | - |
| 1777659354 | 20.56° C | 42% | - | 0 mm | - | - | - |
| 1777659050 | 20.56° C | 37% | - | 0 mm | - | - | - |
| 1777658444 | 21.11° C | 37% | - | 0 mm | - | - | - |
| 1777658141 | 21.11° C | 36% | - | 0 mm | - | - | - |
| 1777656930 | 21.11° C | 39% | - | 0 mm | - | - | - |
| 1777656626 | 21.11° C | 35% | - | 0 mm | - | - | - |
| 1777655411 | 20.56° C | 39% | - | 0 mm | - | - | - |
| 1777655107 | 20° C | 40% | - | 0 mm | - | - | - |
| 1777653594 | 20.56° C | 39% | - | 0 mm | - | - | - |
| 1777652683 | 20.56° C | 39% | - | 0 mm | - | - | - |
| 1777652077 | 20.56° C | 40% | - | 0 mm | - | - | - |
| 1777651774 | 20° C | 39% | - | 0 mm | - | - | - |
* Rain latest hour (hover to see other rain measurements)
** Current wind speed in m/s (hover to see current wind gust speed)